MDT,Max TemperatureF,Mean TemperatureF,Min TemperatureF,Max Dew PointF,MeanDew PointF,Min DewpointF,Max Humidity, Mean Humidity, Min Humidity, Max Sea Level PressureIn, Mean Sea Level PressureIn, Min Sea Level PressureIn, Max VisibilityMiles, Mean VisibilityMiles, Min VisibilityMiles, Max Wind SpeedMPH, Mean Wind SpeedMPH, Max Gust SpeedMPH,PrecipitationIn, CloudCover, Events, WindDirDegrees
2012-10-1,78,65,52,37,34,31,50,35,19,30.20,30.11,30.01,10,10,10,9,5,,0.00,0,,206
2012-10-2,79,65,51,34,31,28,46,30,15,30.12,29.93,29.80,10,10,3,13,8,,0.00,0,,180
2012-10-3,71,60,46,35,25,13,50,30,11,30.05,29.96,29.81,10,10,10,15,7,,0.00,0,,250
2012-10-4,66,52,39,25,20,11,53,31,12,30.10,30.03,29.94,10,10,10,9,5,,0.00,0,,301
2012-10-5,60,48,37,24,18,15,47,30,19,30.16,30.09,29.97,10,10,10,8,5,,0.00,0,,233
2012-10-6,60,46,33,23,16,6,64,32,13,30.19,30.12,30.08,10,10,10,7,4,,0.00,0,,238
2012-10-7,59,46,34,18,12,7,35,26,15,30.19,30.12,30.07,10,10,10,8,5,,0.00,0,,187
2012-10-8,66,52,37,22,14,12,36,25,12,30.06,29.97,29.87,10,10,10,10,7,,0.00,0,,178
2012-10-9,71,56,43,27,19,14,37,25,12,29.98,29.93,29.86,10,10,9,13,7,,0.00,0,,190
2012-10-10,75,60,46,39,25,16,43,27,18,29.99,29.91,29.84,10,10,10,10,6,,0.00,0,,187
2012-10-11,78,64,52,44,36,31,50,37,22,29.91,29.84,29.76,10,10,10,10,6,,0.00,2,,164
2012-10-12,64,54,48,52,41,31,94,65,36,29.98,29.85,29.78,10,9,2,14,9,18,0.26,5,Rain,182
2012-10-13,57,52,46,45,43,42,83,75,59,30.25,30.13,29.97,10,10,10,13,9,,0.00,8,,166
2012-10-14,64,54,44,42,39,31,85,61,30,30.33,30.24,30.14,10,10,10,10,6,,0.00,0,,173
2012-10-15,68,56,45,38,36,34,71,50,31,30.11,30.03,29.93,10,10,10,13,8,,0.00,0,Rain,174
2012-10-16,73,60,46,49,36,23,72,48,31,29.99,29.83,29.64,10,10,10,30,12,44,0.01,4,Rain,211
2012-10-17,54,46,39,21,18,13,46,33,22,30.21,30.14,30.01,10,10,10,12,6,,0.00,0,,230
2012-10-18,61,48,35,22,18,11,52,35,16,30.31,30.24,30.17,10,10,10,9,6,,0.00,0,,188
2012-10-19,66,52,39,30,24,22,51,35,19,30.17,30.02,29.81,10,10,10,10,7,,0.00,0,Rain,178
2012-10-20,73,62,53,39,28,23,55,32,16,29.80,29.66,29.56,10,10,10,10,7,,0.00,4,,199
2012-10-21,63,56,50,42,38,33,66,52,34,29.76,29.68,29.62,10,10,10,10,4,,0.00,4,Rain-Thunderstorm,198
2012-10-22,68,58,46,46,42,34,93,63,28,29.73,29.60,29.47,10,9,2,26,9,34,0.27,7,Rain-Thunderstorm,217
2012-10-23,46,40,33,45,37,32,100,90,68,29.98,29.84,29.62,10,7,2,18,8,25,0.81,8,Rain-Snow-Thunderstorm,32
2012-10-24,46,39,33,34,32,25,100,82,46,30.10,30.00,29.96,10,10,10,12,5,,0.04,6,Rain-Thunderstorm,331
2012-10-25,37,34,30,34,32,27,100,92,73,30.44,30.18,30.08,10,4,0,12,5,16,0.40,7,Fog-Snow-Thunderstorm,141
2012-10-26,44,34,26,28,25,21,89,70,45,30.51,30.38,30.21,10,10,10,8,6,,0.00,2,,165
2012-10-27,55,42,30,33,27,24,76,55,33,30.22,30.16,30.12,10,10,10,10,7,,0.00,4,,178
2012-10-28,63,53,43,38,33,31,65,51,32,30.14,30.09,30.04,10,10,10,12,8,,0.00,4,,175
2012-10-29,66,56,45,36,34,29,68,50,24,30.14,30.09,30.05,10,10,10,12,7,,0.00,0,,182
2012-10-30,69,54,43,41,34,31,65,50,27,30.14,30.09,30.04,10,10,10,10,6,,0.00,0,,172
2012-10-31,72,58,44,41,32,28,60,43,20,30.10,30.00,29.89,10,10,10,14,7,,0.00,0,,181